Weather History for Minneapolis Crystal, MN

Change the Weather History Date:

Wednesday, March 5, 2014

  Actual Average Record
Temperature  
Mean Temperature 17 °F -  
Max Temperature 24 °F 28 °F 45 °F (1992)
Min Temperature 10 °F 13 °F -7 °F (2003)
Degree Days  
Heating Degree Days 48    
Moisture  
Dew Point 6 °F    
Average Humidity 61    
Maximum Humidity 73    
Minimum Humidity 51    
Precipitation  
Precipitation 0.00 in - - ()
Sea Level Pressure  
Sea Level Pressure 30.42 in    
Wind  
Wind Speed 6 mph (ESE)    
Max Wind Speed 12 mph    
Max Gust Speed -    
Visibility 10 miles    
Events      
Averages and records for this station are not official NWS values.
T = Trace of Precipitation, MM = Missing Value Source: NWS Daily Summary

Daily Weather History Graph

Daily Weather History Graph

Search for Another Location

Airport:

Trip Planner

Search our weather history database for the weather conditions in past years. The results will help you decide how hot, cold, wet, or windy it might be!

Date:

Astronomy

Mar. 05, 2014 Rise Set
Actual Time 6:44 AM CST 6:06 PM CST
Civil Twilight 6:14 AM CST 6:35 PM CST
Nautical Twilight 5:40 AM CST 7:09 PM CST
Astronomical Twilight 5:06 AM CST 7:43 PM CST
Moon 8:56 AM CST (3/5) 11:30 PM CST (3/5)
Length of Visible Light 12h 20m
Length of Day
11h 22m
Waxing Crescent, 23% of the Moon is Illuminated
Mar 5
Waxing Crescent
Mar 8
First Quarter
Mar 16
Full
Mar 23
Last Quarter
Mar 30
New

Hourly Weather History & Observations

Time (CST) Temp. Windchill Dew Point Humidity Pressure Visibility Wind Dir Wind Speed Gust Speed Precip Events Conditions
12:53 AM 16.0 °F 10.4 °F 3.9 °F 59% 30.35 in 10.0 mi NE 3.5 mph - N/A   Overcast
1:53 AM 16.0 °F 8.8 °F 5.0 °F 62% 30.37 in 10.0 mi ENE 4.6 mph - N/A   Overcast
2:53 AM 16.0 °F 10.4 °F 5.0 °F 62% 30.37 in 10.0 mi East 3.5 mph - N/A   Overcast
3:53 AM 16.0 °F - 5.0 °F 62% 30.39 in 10.0 mi Calm Calm - N/A   Partly Cloudy
4:53 AM 15.1 °F - 3.9 °F 61% 30.40 in 10.0 mi Calm Calm - N/A   Clear
5:53 AM 10.9 °F 2.9 °F 3.0 °F 70% 30.41 in 10.0 mi NE 4.6 mph - N/A   Clear
6:53 AM 10.0 °F 0.4 °F 3.0 °F 73% 30.44 in 10.0 mi NE 5.8 mph - N/A   Clear
7:53 AM 12.0 °F 2.7 °F 3.0 °F 67% 30.45 in 10.0 mi East 5.8 mph - N/A   Clear
8:53 AM 15.1 °F 6.4 °F 3.9 °F 61% 30.48 in 10.0 mi ESE 5.8 mph - N/A   Clear
9:53 AM 18.0 °F 9.8 °F 5.0 °F 57% 30.49 in 10.0 mi ENE 5.8 mph - N/A   Clear
10:53 AM 19.0 °F 11.1 °F 7.0 °F 59% 30.49 in 10.0 mi Variable 5.8 mph - N/A   Clear
11:53 AM 21.0 °F 10.6 °F 7.0 °F 55% 30.48 in 10.0 mi ESE 9.2 mph - N/A   Clear
12:53 PM 23.0 °F 12.4 °F 8.1 °F 53% 30.46 in 10.0 mi ESE 10.4 mph - N/A   Clear
1:53 PM 23.0 °F 12.4 °F 8.1 °F 53% 30.44 in 10.0 mi ESE 10.4 mph - N/A   Clear
2:53 PM 23.0 °F 11.7 °F 8.1 °F 53% 30.45 in 10.0 mi ESE 11.5 mph - N/A   Clear
3:53 PM 24.1 °F 13.1 °F 8.1 °F 51% 30.42 in 10.0 mi SE 11.5 mph - N/A   Clear
4:53 PM 23.0 °F 13.1 °F 8.1 °F 53% 30.41 in 10.0 mi ESE 9.2 mph - N/A   Clear
5:53 PM 21.9 °F 10.4 °F 8.1 °F 55% 30.41 in 10.0 mi SE 11.5 mph - N/A   Clear
6:53 PM 19.9 °F 10.1 °F 8.1 °F 60% 30.43 in 10.0 mi SSE 8.1 mph - N/A   Clear
7:53 PM 17.1 °F 11.7 °F 7.0 °F 65% 30.41 in 10.0 mi South 3.5 mph - N/A   Clear
8:53 PM 17.1 °F 7.6 °F 8.1 °F 68% 30.38 in 10.0 mi SSE 6.9 mph - N/A   Clear
9:53 PM 17.1 °F 7.6 °F 7.0 °F 65% 30.39 in 10.0 mi SSE 6.9 mph - N/A   Clear
10:53 PM 15.1 °F 5.2 °F 6.1 °F 68% 30.38 in 10.0 mi SSE 6.9 mph - N/A   Clear
11:53 PM 16.0 °F 3.6 °F 6.1 °F 65% 30.38 in 10.0 mi SSE 10.4 mph - N/A   Clear